[[{"header":{"parameterUnit":"m.s-1","parameterCategory":1,"la1":30.2992,"la2":30.254,"lo1":-89.0895,"lo2":-89.0443,"dy":0.0025,"dx":0.0025,"nx":19,"ny":19,"refTime":"2026-05-14T03:00:00:Z","depth":0,"parameterNumber":2,"parameterNumberName":"U-component_of_WINDS"},"data":[0,0,0,0.4788,0.479,0.4917,0.4918,0.5075,0.5077,0,0,0,0,0,0,0,0,0,0,0,0.4744,0.4745,0.4788,0.4791,0.4917,0.4918,0.5075,0.5077,0,0,0,0,0,0,0,0,0,0,0,0.4744,0.4745,0.4746,0.4791,0.4917,0.4918,0.5075,0.4982,0,0,0,0,0,0,0,0,0,0,0.486,0.4812,0.4744,0.4746,0.4792,0.4917,0.4918,0.4977,0.4987,0.5015,0,0.5035,0,0.5058,0.5087,0.5087,0,0,0,0.4796,0.4804,0.4843,0.4746,0.4793,0.4917,0.4862,0.4983,0.4995,0.5028,0.5037,0.5043,0.506,0.5088,0.5088,0.5221,0.5222,0,0,0.4789,0.4764,0.4835,0.485,0.4827,0.4858,0.4866,0.499,0.4999,0.5037,0.5047,0.5063,0.5089,0.509,0.5221,0.5222,0,0,0,0.4765,0.4759,0.4796,0.4844,0.4866,0.4861,0.487,0.4994,0.5007,0.5049,0.5065,0.5089,0.5091,0.5221,0.5221,0.5214,0,0,0,0.4761,0.4745,0.4792,0.4779,0.4864,0.4931,0.4871,0.4999,0.5014,0.5064,0.5089,0.5093,0.522,0.5221,0.5214,0.5216,0,0,0,0.4738,0.4743,0.4758,0.4777,0.483,0.4929,0.4951,0.5003,0.5023,0.5087,0.5093,0.522,0.5221,0.5213,0.5215,0.5244,0,0,0,0.4707,0.4751,0.4758,0.4815,0.4829,0.4923,0.495,0.5022,0.5076,0.509,0.522,0.5221,0.5213,0.5214,0.5243,0.5264,0.527,0,0,0.4749,0.4755,0.4791,0.4801,0.4887,0.4906,0.4993,0.5067,0.5097,0.5179,0.5183,0.5214,0.5215,0.5244,0.5312,0.5316,0,0,0,0.4796,0.4821,0.485,0.4898,0.4955,0.5004,0.5067,0.5095,0.5166,0.5133,0.5233,0.5234,0.5252,0.5264,0.5268,0.5286,0.5225,0.5225,0.5225,0.4821,0.4856,0.4917,0.4968,0.5015,0.508,0.5123,0.5172,0.5194,0.5218,0.5242,0.5279,0.5291,0.5294,0.5312,0.5256,0.5256,0.5256,0.5256,0.4887,0.4929,0.4957,0.5026,0.5064,0.5125,0.519,0.5204,0.5268,0.5263,0.5281,0.5273,0.5298,0.5316,0.5256,0.5256,0.5256,0.5256,0.5256,0.4908,0.4934,0.4966,0.5041,0.5096,0.5147,0.5206,0.5239,0.5271,0.5288,0.5319,0.5319,0.5324,0.53,0.53,0.5301,0.5301,0.5301,0.5301,0.4917,0.4953,0.4997,0.5061,0.5098,0.515,0.5217,0.5255,0.5306,0.5326,0.5326,0.5348,0.5293,0.5279,0.5303,0.5303,0.5302,0.5302,0.5302,0.4972,0.4965,0.5033,0.5069,0.5149,0.5202,0.5243,0.5318,0.5355,0.5383,0.5401,0.5355,0.5365,0.5362,0.5351,0.5392,0.5392,0.5392,0.5392,0.4989,0.4997,0.5075,0.5131,0.5191,0.5235,0.5315,0.5369,0.5424,0.5449,0.5448,0.5436,0.5432,0.5444,0.544,0.543,0.549,0.549,0.549,0.5026,0.5041,0.5101,0.5152,0.5217,0.5273,0.5349,0.5416,0.5477,0.5495,0.547,0.5466,0.5447,0.5439,0.5456,0.5448,0.543,0,0]},{"header":{"parameterUnit":"m.s-1","parameterCategory":1,"la1":30.2992,"la2":30.254,"lo1":-89.0895,"lo2":-89.0443,"dy":0.0025,"dx":0.0025,"nx":19,"ny":19,"refTime":"2026-05-14T03:00:00:Z","depth":0,"parameterNumber":3,"parameterNumberName":"V-component_of_WINDS"},"data":[0,0,0,-0.9458,-0.9455,-0.9275,-0.9274,-0.9042,-0.904,0,0,0,0,0,0,0,0,0,0,0,-0.9508,-0.9506,-0.9459,-0.9454,-0.9275,-0.9274,-0.9042,-0.904,0,0,0,0,0,0,0,0,0,0,0,-0.9509,-0.9507,-0.9504,-0.9453,-0.9275,-0.9274,-0.9043,-0.9179,0,0,0,0,0,0,0,0,0,0,-0.9354,-0.9395,-0.9507,-0.9504,-0.9452,-0.9276,-0.9274,-0.9186,-0.9171,-0.9121,0,-0.9075,0,-0.9054,-0.9024,-0.9023,0,0,0,-0.9457,-0.9408,-0.9363,-0.9504,-0.9451,-0.9276,-0.9357,-0.9178,-0.916,-0.9101,-0.9072,-0.9063,-0.905,-0.9022,-0.9021,-0.8728,-0.8727,0,0,-0.9467,-0.9473,-0.9375,-0.9352,-0.9378,-0.9362,-0.9351,-0.9167,-0.9136,-0.9071,-0.9058,-0.9046,-0.9021,-0.9019,-0.873,-0.8728,0,0,0,-0.9493,-0.948,-0.944,-0.9362,-0.933,-0.9357,-0.9344,-0.9144,-0.913,-0.9055,-0.9043,-0.9019,-0.9016,-0.8731,-0.8729,-0.8665,0,0,0,-0.9499,-0.9496,-0.9444,-0.9446,-0.9333,-0.9234,-0.9325,-0.9143,-0.9122,-0.9045,-0.9019,-0.9014,-0.8733,-0.873,-0.867,-0.8633,0,0,0,-0.9521,-0.9498,-0.9471,-0.9447,-0.937,-0.9237,-0.9213,-0.9138,-0.9115,-0.9023,-0.9013,-0.8734,-0.8731,-0.8675,-0.864,-0.8561,0,0,0,-0.9545,-0.9412,-0.947,-0.9318,-0.9372,-0.9198,-0.9214,-0.9083,-0.8997,-0.9018,-0.8733,-0.8729,-0.8676,-0.8645,-0.8566,-0.8497,-0.8468,0,0,-0.9381,-0.9393,-0.9303,-0.935,-0.9168,-0.9225,-0.9034,-0.8947,-0.8931,-0.8797,-0.879,-0.8668,-0.8641,-0.8562,-0.8301,-0.8278,0,0,0,-0.9254,-0.919,-0.914,-0.906,-0.8992,-0.8933,-0.8875,-0.8844,-0.8731,-0.8863,-0.8617,-0.86,-0.8554,-0.8521,-0.8501,-0.8463,-0.8714,-0.8714,-0.8714,-0.9031,-0.9021,-0.8874,-0.8845,-0.8767,-0.8712,-0.8649,-0.8598,-0.8607,-0.855,-0.851,-0.8353,-0.8315,-0.83,-0.826,-0.8472,-0.8471,-0.8471,-0.8471,-0.8793,-0.8702,-0.8725,-0.859,-0.8582,-0.8469,-0.8414,-0.8426,-0.8321,-0.8381,-0.8339,-0.8407,-0.8275,-0.824,-0.8466,-0.8467,-0.8467,-0.8468,-0.8468,-0.8647,-0.8603,-0.8569,-0.8457,-0.8371,-0.8346,-0.8247,-0.8242,-0.8236,-0.8195,-0.8156,-0.8157,-0.8161,-0.8177,-0.8176,-0.8176,-0.8175,-0.8175,-0.8175,-0.8509,-0.8474,-0.8391,-0.8314,-0.8265,-0.82,-0.8149,-0.8101,-0.8047,-0.8052,-0.8051,-0.807,-0.8263,-0.8314,-0.8166,-0.8168,-0.8169,-0.817,-0.817,-0.8274,-0.8328,-0.82,-0.8152,-0.8064,-0.7983,-0.798,-0.7884,-0.7844,-0.7797,-0.7826,-0.7968,-0.7979,-0.7994,-0.8036,-0.7826,-0.7826,-0.7826,-0.7826,-0.8153,-0.8159,-0.8031,-0.7955,-0.788,-0.7867,-0.7727,-0.7688,-0.7656,-0.7632,-0.7662,-0.7716,-0.7732,-0.7734,-0.7755,-0.7794,-0.7526,-0.7526,-0.7526,-0.801,-0.801,-0.789,-0.7862,-0.7795,-0.7738,-0.7608,-0.7523,-0.7497,-0.7514,-0.7614,-0.7627,-0.7715,-0.7743,-0.7761,-0.7793,-0.7865,0,0]}]]